Location: Hains Lake
(37.8540°N, 99.8578°W)
Time: 07:15:46
(UTC+00:00)

Tiros 1 despin weight - Visible Passes

Search period start: 20 April 2021 00:00
Search period end: 30 April 2021 00:00
Orbit: 593 x 641 km, 48.2° (Epoch: 19 April)

Date Brightness Start Highest point End Pass type
(mag) Time Alt. Az. Time Alt. Az. Time Alt. Az.
20 Apr ? 10:13:33 18° S 10:15:39 26° SE 10:19:27 10° E visible
21 Apr ? 10:29:18 24° SSW 10:31:47 50° SE 10:36:13 10° ENE visible
22 Apr ? 09:07:56 16° ESE 09:07:56 16° ESE 09:09:57 10° E visible
22 Apr ? 10:44:58 21° WSW 10:48:03 86° NNW 10:52:38 10° NE visible
23 Apr ? 09:23:31 33° ESE 09:23:31 33° ESE 09:27:10 10° ENE visible
23 Apr ? 11:00:34 13° W 11:04:27 50° NNW 11:08:55 10° NE visible
24 Apr ? 09:39:03 66° SSE 09:39:11 67° SE 09:43:45 10° ENE visible
24 Apr ? 11:16:47 10° W 11:20:59 33° NNW 11:25:09 10° NE visible
25 Apr ? 08:17:29 12° E 08:17:29 12° E 08:17:54 10° E visible
25 Apr ? 09:54:30 51° W 09:55:30 69° NNW 10:00:06 10° NE visible
26 Apr ? 08:32:53 23° ENE 08:32:53 23° ENE 08:34:47 10° ENE visible
26 Apr ? 10:09:55 26° WNW 10:11:58 42° NNW 10:16:21 10° NE visible
27 Apr ? 08:48:15 40° ENE 08:48:15 40° ENE 08:51:15 10° ENE visible
27 Apr ? 10:25:16 14° WNW 10:28:33 30° NNW 10:32:36 10° NE visible
28 Apr ? 09:03:34 51° N 09:03:34 51° N 09:07:31 10° NE visible
28 Apr ? 10:41:27 10° WNW 10:45:14 24° N 10:49:00 10° NE visible
29 Apr ? 07:41:49 13° ENE 07:41:49 13° ENE 07:42:19 10° ENE visible
29 Apr ? 09:18:50 34° NW 09:19:29 36° NNW 09:23:46 10° NE visible
29 Apr ? 10:58:21 10° NW 11:01:59 22° N 11:05:35 10° NE visible
